This demonstration page uses our WeatherBlox Daily Observations layout. Learn more.

Left ArrowRight Arrow

36.17497, -115.13722

Hourly Observations for November 12, 2021

Temp ( °F °C ) Dew Point ( °F °C ) Humidity (%) Winds ( mph kmh ) Pressure ( in mb ) Visibility ( mi km ) Precip ( " mm )
12:53 am 00:53 Clear 63 17.2 35 1.7 35 35 NW 7 11 30.27 1025 10 16 0.00 0.00
1:53 am 01:53 Clear 62 16.7 35 1.7 37 37 NNW 6 9 30.28 1025 10 16 0.00 0.00
2:53 am 02:53 Clear 64 17.8 36 2.2 35 35 N 7 11 30.27 1025 10 16 0.00 0.00
3:53 am 03:53 Clear 62 16.7 34 1.1 35 35 NNE 8 13 30.27 1025 10 16 0.00 0.00
4:53 am 04:53 Clear 61 16.1 35 1.7 38 38 W 6 9 30.29 1026 10 16 0.00 0.00
5:53 am 05:53 Clear 61 16.1 35 1.7 38 38 VRB 5 7 30.30 1026 10 16 0.00 0.00
6:53 am 06:53 Sunny 61 16.1 35 1.7 38 38 NNW 7 11 30.32 1027 10 16 0.00 0.00
7:53 am 07:53 Sunny 66 18.9 36 2.2 33 33 NNW 9 15 30.33 1027 10 16 0.00 0.00
8:53 am 08:53 Sunny 71 21.7 36 2.2 28 28 N 7 11 30.33 1027 10 16 0.00 0.00
9:53 am 09:53 Sunny 74 23.3 36 2.2 25 25 N 10 17 30.32 1027 10 16 0.00 0.00
10:53 am 10:53 Sunny 76 24.4 35 1.7 23 23 N 5 7 30.30 1026 10 16 0.00 0.00
11:53 am 11:53 Sunny 78 25.6 35 1.7 21 21 Calm 30.26 1025 10 16 0.00 0.00
12:53 pm 12:53 Sunny 78 25.6 35 1.7 21 21 NW 3 6 30.23 1024 10 16 0.00 0.00
1:53 pm 13:53 Sunny 79 26.1 35 1.7 20 20 Calm 30.21 1023 10 16 0.00 0.00
2:53 pm 14:53 Sunny 80 26.7 35 1.7 20 20 WNW 3 6 30.19 1023 10 16 0.00 0.00
3:53 pm 15:53 Sunny 80 26.7 35 1.7 20 20 Calm 30.19 1023 10 16 0.00 0.00
4:53 pm 16:53 Clear 77 25 34 1.1 21 21 Calm 30.20 1023 10 16 0.00 0.00
5:53 pm 17:53 Clear 73 22.8 35 1.7 25 25 Calm 30.21 1023 10 16 0.00 0.00
6:53 pm 18:53 Clear 69 20.6 36 2.2 30 30 WNW 6 9 30.22 1024 10 16 0.00 0.00
7:53 pm 19:53 Clear 67 19.4 35 1.7 31 31 W 8 13 30.22 1023 10 16 0.00 0.00
8:53 pm 20:53 Clear 65 18.3 35 1.7 33 33 W 7 11 30.22 1023 10 16 0.00 0.00
9:53 pm 21:53 Clear 63 17.2 35 1.7 35 35 W 5 7 30.22 1023 10 16 0.00 0.00
10:53 pm 22:53 Clear 63 17.2 33 0.6 33 33 WNW 3 6 30.22 1023 10 16 0.00 0.00
11:53 pm 23:53 Clear 61 16.1 32 0 34 34 W 3 6 30.21 1023 10 16 0.00 0.00

Powered by AerisWeather